星链-2418 (STARLINK-2418 )

导读 | 豆包AI

STARLINK-2418是美国SpaceX公司星链(Starlink)卫星互联网星座的一员,于2021年4月7日发射。星链项目计划打造覆盖全球的低轨卫星互联网,为偏远地区提供高速低延迟宽带服务。这颗卫星运行在近地轨道,配备相控阵天线和氩气推进系统,支持波束调度与轨道机动,是星链星座不断扩张中的组成部分,助力实现全球互联的卫星网络布局。

Basic Information
目录编号:
48097
目录名称:
STARLINK-2418
国际标识:
2021-027F
轨道中心:
EARTH
卫星名称:
星链-2418
卫星全名:
星链-2418 (STARLINK-2418 )
卫星状态:
在轨 (已飞行1802 天)
发射日期:
2021-04-07 UTC
国别 :
美国 (US)
星等 :
--
Orbit Information
数据来源 国际轨道数据 AOE轨道数据
星历时间 2026-03-14T16:00:02+0800
8小时前
查看轨道信息
2026-03-09T07:00:00+0800
5天前
查看轨道信息
半长轴 6906.703km 6925.384km
偏心率 0.0001964 0.0001207
轨道倾角 53.077° 53.053°
近地点辐角 87.632° 70.783°
升交点赤经 130.720° 154.903°
平近点角 90.040° 70.690°
近地点 527.209km 546.411km
远地点 529.923km 548.083km
周期 95.206分钟 95.593分钟
每日圈数 15.125043 15.063886
Detailed Information
固有亮度:
5
最大亮度:
2.5
卫星平台:
Starlink V1.0
覆盖范围:
全球
运营商:
太空探索技术公司
运营商所在国:
美国
制造商(研发单位):
太空探索技术公司
制造商所在国:
美国
使用方式:
暂无
Satellite Introduction
星链(Starlink)计划是由太空探索技术公司(SpaceX)提出的一个巨型低轨卫星互联网星座项目,计划在2019年至2024年间在太空搭建由约1.2万颗卫星组成的“星链”网络,其中1584颗将部署在地球上空550千米处的近地轨道,并从2020年开始工作。该卫星仍在工作。
2D Orbit Map
3D Orbit Map
Orbit Altitude Analysis Chart
Orbit Inclination Analysis Chart
Orbit Comprehensive Analysis Chart
View Comprehensive Chart